Time,TemperatureF,DewpointF,PressureIn,WindDirection,WindDirectionDegrees,WindSpeedMPH,WindSpeedGustMPH,Humidity,HourlyPrecipIn,Conditions,Clouds,dailyrainin,SoftwareType,DateUTC
2013-01-21 00:14:00,18.6,15.0,30.46,East,94,0.0,0.0,86,0.00,,,0.00,weatherlink.com 1.10,2013-01-21 07:14:00,
2013-01-21 00:28:00,18.6,15.0,30.45,ENE,58,0.0,0.0,87,0.00,,,0.00,weatherlink.com 1.10,2013-01-21 07:28:00,
2013-01-21 00:43:00,18.8,16.0,30.44,WNW,290,1.0,3.0,87,0.00,,,0.00,weatherlink.com 1.10,2013-01-21 07:43:00,
2013-01-21 00:57:00,19.4,16.0,30.43,WSW,253,3.0,8.0,87,0.00,,,0.00,weatherlink.com 1.10,2013-01-21 07:57:00,
2013-01-21 01:12:00,20.1,17.0,30.42,SW,224,5.0,10.0,88,0.00,,,0.00,weatherlink.com 1.10,2013-01-21 08:12:00,
2013-01-21 01:27:00,20.4,17.0,30.41,WSW,245,5.0,12.0,88,0.00,,,0.00,weatherlink.com 1.10,2013-01-21 08:27:00,
2013-01-21 01:41:00,20.6,18.0,30.41,West,273,11.0,15.0,88,0.00,,,0.00,weatherlink.com 1.10,2013-01-21 08:41:00,
2013-01-21 01:55:00,20.4,17.0,30.39,North,349,11.0,15.0,88,0.00,,,0.00,weatherlink.com 1.10,2013-01-21 08:55:00,
2013-01-21 02:10:00,19.8,17.0,30.38,North,4,12.0,14.0,89,0.00,,,0.00,weatherlink.com 1.10,2013-01-21 09:10:00,
2013-01-21 02:24:00,19.4,17.0,30.36,NNE,18,7.0,15.0,90,0.00,,,0.00,weatherlink.com 1.10,2013-01-21 09:24:00,
2013-01-21 02:39:00,19.3,17.0,30.37,North,360,9.0,10.0,90,0.00,,,0.00,weatherlink.com 1.10,2013-01-21 09:39:00,
2013-01-21 02:53:00,18.7,16.0,30.39,WNW,300,3.0,3.0,90,0.00,,,0.00,weatherlink.com 1.10,2013-01-21 09:53:00,
2013-01-21 03:08:00,19.4,17.0,30.38,NE,39,1.0,3.0,91,0.00,,,0.00,weatherlink.com 1.10,2013-01-21 10:08:00,
2013-01-21 03:22:00,18.9,16.0,30.39,East,98,2.0,8.0,88,0.00,,,0.00,weatherlink.com 1.10,2013-01-21 10:22:00,
2013-01-21 03:36:00,18.9,16.0,30.37,East,96,2.0,6.0,89,0.00,,,0.00,weatherlink.com 1.10,2013-01-21 10:36:00,
2013-01-21 03:50:00,18.9,16.0,30.37,East,96,1.0,4.0,89,0.00,,,0.00,weatherlink.com 1.10,2013-01-21 10:50:00,
2013-01-21 04:05:00,18.9,16.0,30.36,East,101,2.0,3.0,89,0.00,,,0.00,weatherlink.com 1.10,2013-01-21 11:05:00,
2013-01-21 04:20:00,18.9,16.0,30.37,ENE,65,0.0,3.0,90,0.00,,,0.00,weatherlink.com 1.10,2013-01-21 11:20:00,
2013-01-21 04:34:00,18.4,16.0,30.37,ENE,70,2.0,4.0,90,0.00,,,0.00,weatherlink.com 1.10,2013-01-21 11:34:00,
2013-01-21 04:48:00,17.0,15.0,30.39,ESE,107,1.0,3.0,91,0.00,,,0.00,weatherlink.com 1.10,2013-01-21 11:48:00,
2013-01-21 05:03:00,16.4,14.0,30.40,ESE,121,1.0,2.0,92,0.00,,,0.00,weatherlink.com 1.10,2013-01-21 12:03:00,
2013-01-21 05:18:00,16.2,14.0,30.41,ESE,120,1.0,2.0,92,0.00,,,0.00,weatherlink.com 1.10,2013-01-21 12:18:00,
2013-01-21 05:32:00,15.9,14.0,30.41,ESE,106,1.0,2.0,92,0.00,,,0.00,weatherlink.com 1.10,2013-01-21 12:32:00,
2013-01-21 05:46:00,15.8,14.0,30.41,ENE,71,2.0,2.0,93,0.00,,,0.00,weatherlink.com 1.10,2013-01-21 12:46:00,
2013-01-21 06:01:00,15.8,14.0,30.41,ENE,58,3.0,4.0,93,0.00,,,0.00,weatherlink.com 1.10,2013-01-21 13:01:00,
2013-01-21 06:16:00,15.7,14.0,30.39,NE,35,8.0,9.0,93,0.00,,,0.00,weatherlink.com 1.10,2013-01-21 13:16:00,
2013-01-21 06:30:00,15.5,13.0,30.37,NNE,32,6.0,9.0,91,0.00,,,0.00,weatherlink.com 1.10,2013-01-21 13:30:00,
2013-01-21 06:44:00,15.4,13.0,30.37,NE,51,3.0,7.0,90,0.00,,,0.00,weatherlink.com 1.10,2013-01-21 13:44:00,
2013-01-21 06:59:00,16.8,14.0,30.37,NE,43,6.0,7.0,89,0.00,,,0.00,weatherlink.com 1.10,2013-01-21 13:59:00,
2013-01-21 07:13:00,16.9,14.0,30.37,NE,52,5.0,6.0,87,0.00,,,0.00,weatherlink.com 1.10,2013-01-21 14:13:00,
2013-01-21 07:28:00,17.3,14.0,30.37,NNE,32,6.0,7.0,86,0.00,,,0.00,weatherlink.com 1.10,2013-01-21 14:28:00,
2013-01-21 07:42:00,17.6,14.0,30.37,NNE,27,4.0,6.0,85,0.00,,,0.00,weatherlink.com 1.10,2013-01-21 14:42:00,
2013-01-21 07:56:00,18.1,15.0,30.37,NE,52,1.0,5.0,87,0.00,,,0.00,weatherlink.com 1.10,2013-01-21 14:56:00,
2013-01-21 08:11:00,19.6,16.0,30.37,NE,36,4.0,4.0,87,0.00,,,0.00,weatherlink.com 1.10,2013-01-21 15:11:00,
2013-01-21 08:25:00,20.9,17.0,30.37,NE,40,4.0,6.0,84,0.00,,,0.00,weatherlink.com 1.10,2013-01-21 15:25:00,
2013-01-21 08:40:00,22.9,19.0,30.37,NNE,32,5.0,7.0,83,0.00,,,0.00,weatherlink.com 1.10,2013-01-21 15:40:00,
2013-01-21 08:54:00,25.5,20.0,30.37,NE,42,7.0,9.0,79,0.00,,,0.00,weatherlink.com 1.10,2013-01-21 15:54:00,
2013-01-21 09:09:00,27.8,21.0,30.37,North,1,9.0,10.0,74,0.00,,,0.00,weatherlink.com 1.10,2013-01-21 16:09:00,
2013-01-21 09:23:00,29.3,21.0,30.38,North,356,4.0,9.0,71,0.00,,,0.00,weatherlink.com 1.10,2013-01-21 16:23:00,
2013-01-21 09:38:00,30.7,21.0,30.38,North,11,6.0,11.0,67,0.00,,,0.00,weatherlink.com 1.10,2013-01-21 16:38:00,
2013-01-21 09:52:00,31.8,21.0,30.38,NE,41,8.0,9.0,64,0.00,,,0.00,weatherlink.com 1.10,2013-01-21 16:52:00,
2013-01-21 10:07:00,33.4,21.0,30.38,NNE,20,5.0,9.0,61,0.00,,,0.00,weatherlink.com 1.10,2013-01-21 17:07:00,
2013-01-21 10:21:00,34.6,21.0,30.38,NE,34,1.0,5.0,58,0.00,,,0.00,weatherlink.com 1.10,2013-01-21 17:21:00,
2013-01-21 10:36:00,34.9,20.0,30.38,South,183,1.0,3.0,54,0.00,,,0.00,weatherlink.com 1.10,2013-01-21 17:36:00,
2013-01-21 10:50:00,35.2,21.0,30.37,NW,318,2.0,8.0,57,0.00,,,0.00,weatherlink.com 1.10,2013-01-21 17:50:00,
2013-01-21 11:05:00,35.8,21.0,30.37,NNW,329,4.0,7.0,55,0.00,,,0.00,weatherlink.com 1.10,2013-01-21 18:05:00,
2013-01-21 11:19:00,36.0,21.0,30.35,WNW,302,7.0,9.0,54,0.00,,,0.00,weatherlink.com 1.10,2013-01-21 18:19:00,
2013-01-21 11:34:00,36.3,20.0,30.34,NW,321,6.0,10.0,52,0.00,,,0.00,weatherlink.com 1.10,2013-01-21 18:34:00,
2013-01-21 11:48:00,36.5,21.0,30.33,North,353,8.0,10.0,53,0.00,,,0.00,weatherlink.com 1.10,2013-01-21 18:48:00,
2013-01-21 12:03:00,36.8,21.0,30.30,NNE,23,14.0,14.0,52,0.00,,,0.00,weatherlink.com 1.10,2013-01-21 19:03:00,
2013-01-21 12:17:00,36.9,20.0,30.29,NNE,16,9.0,15.0,51,0.00,,,0.00,weatherlink.com 1.10,2013-01-21 19:17:00,
2013-01-21 12:32:00,37.7,22.0,30.28,NE,40,17.0,17.0,52,0.00,,,0.00,weatherlink.com 1.10,2013-01-21 19:32:00,
2013-01-21 12:46:00,38.1,22.0,30.28,NNE,30,8.0,14.0,51,0.00,,,0.00,weatherlink.com 1.10,2013-01-21 19:46:00,
2013-01-21 13:01:00,39.0,21.0,30.27,North,1,12.0,16.0,48,0.00,,,0.00,weatherlink.com 1.10,2013-01-21 20:01:00,
2013-01-21 13:15:00,39.4,21.0,30.26,North,11,13.0,17.0,47,0.00,,,0.00,weatherlink.com 1.10,2013-01-21 20:15:00,
2013-01-21 13:29:00,40.3,20.0,30.26,NE,46,10.0,14.0,44,0.00,,,0.00,weatherlink.com 1.10,2013-01-21 20:29:00,
2013-01-21 13:44:00,41.4,21.0,30.26,NNE,33,5.0,13.0,43,0.00,,,0.00,weatherlink.com 1.10,2013-01-21 20:44:00,
2013-01-21 13:58:00,41.6,21.0,30.25,NE,40,11.0,12.0,43,0.00,,,0.00,weatherlink.com 1.10,2013-01-21 20:58:00,
2013-01-21 14:13:00,42.1,21.0,30.25,NNE,30,8.0,9.0,43,0.00,,,0.00,weatherlink.com 1.10,2013-01-21 21:13:00,
2013-01-21 14:27:00,42.2,21.0,30.25,NNE,33,9.0,10.0,43,0.00,,,0.00,weatherlink.com 1.10,2013-01-21 21:27:00,
2013-01-21 14:42:00,42.8,20.0,30.25,North,9,4.0,9.0,40,0.00,,,0.00,weatherlink.com 1.10,2013-01-21 21:42:00,
2013-01-21 14:56:00,43.3,19.0,30.25,ENE,77,3.0,4.0,38,0.00,,,0.00,weatherlink.com 1.10,2013-01-21 21:56:00,
2013-01-21 15:11:00,43.5,20.0,30.23,NNW,345,2.0,4.0,38,0.00,,,0.00,weatherlink.com 1.10,2013-01-21 22:11:00,
2013-01-21 15:25:00,43.7,22.0,30.23,NNE,29,3.0,6.0,41,0.00,,,0.00,weatherlink.com 1.10,2013-01-21 22:25:00,
2013-01-21 15:40:00,42.5,22.0,30.22,NNE,26,6.0,9.0,43,0.00,,,0.00,weatherlink.com 1.10,2013-01-21 22:40:00,
2013-01-21 15:54:00,42.0,22.0,30.23,NE,40,6.0,9.0,44,0.00,,,0.00,weatherlink.com 1.10,2013-01-21 22:54:00,
2013-01-21 16:09:00,41.5,21.0,30.22,NE,44,3.0,7.0,44,0.00,,,0.00,weatherlink.com 1.10,2013-01-21 23:09:00,
2013-01-21 16:23:00,40.5,22.0,30.21,NE,56,3.0,4.0,47,0.00,,,0.00,weatherlink.com 1.10,2013-01-21 23:23:00,
2013-01-21 16:37:00,38.0,21.0,30.19,NNE,29,4.0,5.0,51,0.00,,,0.00,weatherlink.com 1.10,2013-01-21 23:37:00,
2013-01-21 16:52:00,34.8,22.0,30.20,NE,55,4.0,5.0,58,0.00,,,0.00,weatherlink.com 1.10,2013-01-21 23:52:00,
2013-01-21 17:07:00,32.4,21.0,30.20,ENE,60,3.0,4.0,63,0.00,,,0.00,weatherlink.com 1.10,2013-01-22 00:07:00,
2013-01-21 17:21:00,30.9,21.0,30.20,NNE,30,4.0,5.0,67,0.00,,,0.00,weatherlink.com 1.10,2013-01-22 00:21:00,
2013-01-21 17:36:00,30.2,21.0,30.20,NE,49,4.0,6.0,69,0.00,,,0.00,weatherlink.com 1.10,2013-01-22 00:36:00,
2013-01-21 17:50:00,28.2,20.0,30.20,NE,53,5.0,6.0,72,0.00,,,0.00,weatherlink.com 1.10,2013-01-22 00:50:00,
2013-01-21 18:05:00,28.2,20.0,30.20,NE,47,5.0,5.0,70,0.00,,,0.00,weatherlink.com 1.10,2013-01-22 01:05:00,
2013-01-21 18:19:00,29.1,20.0,30.20,NE,52,3.0,5.0,67,0.00,,,0.00,weatherlink.com 1.10,2013-01-22 01:19:00,
2013-01-21 18:33:00,27.8,19.0,30.20,NE,49,0.0,6.0,70,0.00,,,0.00,weatherlink.com 1.10,2013-01-22 01:33:00,
2013-01-21 18:48:00,27.2,19.0,30.20,NE,40,3.0,3.0,71,0.00,,,0.00,weatherlink.com 1.10,2013-01-22 01:48:00,
2013-01-21 19:02:00,26.2,18.0,30.20,ENE,59,2.0,5.0,72,0.00,,,0.00,weatherlink.com 1.10,2013-01-22 02:02:00,
2013-01-21 19:17:00,27.6,18.0,30.20,ENE,78,0.0,4.0,68,0.00,,,0.00,weatherlink.com 1.10,2013-01-22 02:17:00,
2013-01-21 19:31:00,28.6,18.0,30.20,NE,49,3.0,4.0,65,0.00,,,0.00,weatherlink.com 1.10,2013-01-22 02:31:00,
2013-01-21 19:46:00,27.8,18.0,30.19,ENE,71,1.0,1.0,65,0.00,,,0.00,weatherlink.com 1.10,2013-01-22 02:46:00,
2013-01-21 20:00:00,26.5,17.0,30.18,NE,46,4.0,5.0,68,0.00,,,0.00,weatherlink.com 1.10,2013-01-22 03:00:00,
2013-01-21 20:15:00,25.6,18.0,30.18,NE,55,4.0,4.0,72,0.00,,,0.00,weatherlink.com 1.10,2013-01-22 03:15:00,
2013-01-21 20:29:00,25.9,17.0,30.17,NE,44,4.0,4.0,70,0.00,,,0.00,weatherlink.com 1.10,2013-01-22 03:29:00,
2013-01-21 20:44:00,26.0,17.0,30.18,NNE,33,4.0,4.0,69,0.00,,,0.00,weatherlink.com 1.10,2013-01-22 03:44:00,
2013-01-21 20:58:00,25.7,17.0,30.18,NNE,31,3.0,5.0,70,0.00,,,0.00,weatherlink.com 1.10,2013-01-22 03:58:00,
2013-01-21 21:13:00,23.6,17.0,30.18,ENE,65,2.0,5.0,75,0.00,,,0.00,weatherlink.com 1.10,2013-01-22 04:13:00,
2013-01-21 21:27:00,23.5,16.0,30.19,East,98,1.0,3.0,74,0.00,,,0.00,weatherlink.com 1.10,2013-01-22 04:27:00,
2013-01-21 21:41:00,24.5,17.0,30.19,East,88,2.0,4.0,73,0.00,,,0.00,weatherlink.com 1.10,2013-01-22 04:41:00,
2013-01-21 21:55:00,25.0,17.0,30.19,SSW,201,4.0,4.0,71,0.00,,,0.00,weatherlink.com 1.10,2013-01-22 04:55:00,
2013-01-21 22:10:00,22.1,15.0,30.19,NE,48,1.0,5.0,75,0.00,,,0.00,weatherlink.com 1.10,2013-01-22 05:10:00,
2013-01-21 22:24:00,21.6,16.0,30.19,NE,42,3.0,3.0,77,0.00,,,0.00,weatherlink.com 1.10,2013-01-22 05:24:00,
2013-01-21 22:39:00,21.9,15.0,30.19,NE,34,5.0,5.0,75,0.00,,,0.00,weatherlink.com 1.10,2013-01-22 05:39:00,
2013-01-21 22:53:00,24.0,16.0,30.19,NE,49,4.0,6.0,70,0.00,,,0.00,weatherlink.com 1.10,2013-01-22 05:53:00,
2013-01-21 23:08:00,21.4,14.0,30.19,NE,44,5.0,5.0,74,0.00,,,0.00,weatherlink.com 1.10,2013-01-22 06:08:00,
2013-01-21 23:22:00,21.3,15.0,30.19,NE,46,5.0,5.0,76,0.00,,,0.00,weatherlink.com 1.10,2013-01-22 06:22:00,
2013-01-21 23:37:00,21.2,15.0,30.19,ENE,75,3.0,3.0,76,0.00,,,0.00,weatherlink.com 1.10,2013-01-22 06:37:00,
2013-01-21 23:51:00,20.3,15.0,30.18,NE,43,4.0,5.0,79,0.00,,,0.00,weatherlink.com 1.10,2013-01-22 06:51:00,